Location: Litvinovka
(48.6667°N, 34.3500°E)
Time: 18:07:50
(UTC+00:00)

H-2A R/B - Pass Details

Date: 18 September 2020
Orbit: 734 x 836 km, 98.2° (Epoch: 22 October)

Event Time Altitude Azimuth Distance (km) Brightness Sun altitude
Rises 17:33:18 0° 192° (SSW) 3,159 5.1 -17.6°
Reaches altitude 10° 17:35:46 10° 202° (SSW) 2,249 4.4 -18.0°
Maximum altitude 17:40:11 32° 265° (W) 1,270 3.7 -18.7°
Drops below altitude 10° 17:44:44 10° 329° (NNW) 2,309 5.3 -19.3°
Sets 17:47:18 0° 339° (NNW) 3,257 6.0 -19.7°
